Location: Unspecified
(43.4680°N, 87.1740°E)
Time: 04:14:30
(UTC+00:00)

Cosmos 2058 - Pass Details

Date: 17 April 2021
Orbit: 561 x 583 km, 82.5° (Epoch: 16 May)

Event Time Altitude Azimuth Distance (km) Brightness Sun altitude
Rises 13:56:34 0° 0° (N) 2,812 6.8 -10.9°
Reaches altitude 10° 13:58:58 10° 10° (N) 1,905 5.8 -11.3°
Maximum altitude 14:02:46 33° 75° (ENE) 990 3.7 -11.9°
Enters shadow 14:05:11 18° 129° (SE) 1,424 4.3 -12.3°
